DMSAG EDFB-EDER

Flight info

Callsign DMSAG
Flight time N/A
Altitude 3500
Route EDEN DCT EDER
Aircraft VL3/L-VGD/A

Departure

Time 2026-04-28 08:04
Airport Reichelsheim Airfield (EDFB)

Arrival

Time N/A
Airport Wasserkuppe Airfield (EDER)
Time Latitude Longitude Altitude Speed Heading
2026-04-28 07:57 50.33315 8.87892 413 ft 0 kts
2026-04-28 08:03 50.33583 8.87880 411 ft 76 kts 357°
2026-04-28 08:03 50.34168 8.87847 647 ft 89 kts 360°
2026-04-28 08:04 50.34874 8.88013 934 ft 116 kts 13°
2026-04-28 08:04 50.35650 8.88327 1384 ft 117 kts 25°
2026-04-28 08:04 50.36252 8.89287 1528 ft 131 kts 52°
2026-04-28 08:04 50.36853 8.90391 1746 ft 134 kts 50°
2026-04-28 08:05 50.37452 8.91473 2060 ft 129 kts 51°
2026-04-28 08:05 50.38044 8.92482 2374 ft 126 kts 51°
2026-04-28 08:05 50.38649 8.93465 2694 ft 125 kts 51°
2026-04-28 08:05 50.39266 8.94436 3006 ft 126 kts 52°
2026-04-28 08:06 50.39882 8.95448 3349 ft 130 kts 52°
2026-04-28 08:06 50.40540 8.96545 3499 ft 145 kts 52°
2026-04-28 08:06 50.41207 8.97679 3510 ft 138 kts 53°
2026-04-28 08:06 50.41856 8.98796 3499 ft 137 kts 52°
2026-04-28 08:07 50.42497 8.99885 3499 ft 134 kts 53°
2026-04-28 08:07 50.43136 9.00959 3506 ft 137 kts 52°
2026-04-28 08:07 50.43787 9.02067 3504 ft 139 kts 53°
2026-04-28 08:07 50.44443 9.03163 3501 ft 135 kts 52°
2026-04-28 08:08 50.45092 9.04244 3512 ft 139 kts 53°
2026-04-28 08:08 50.45768 9.05347 3518 ft 141 kts 52°
2026-04-28 08:08 50.46454 9.06494 3501 ft 144 kts 53°
2026-04-28 08:08 50.47126 9.07618 3508 ft 140 kts 52°
2026-04-28 08:09 50.47789 9.08718 3517 ft 142 kts 52°
2026-04-28 08:09 50.48464 9.09837 3506 ft 138 kts 52°
2026-04-28 08:09 50.49117 9.10920 3503 ft 134 kts 51°
2026-04-28 08:09 50.49799 9.11955 3508 ft 138 kts 50°
2026-04-28 08:10 50.50491 9.12992 3502 ft 135 kts 50°
2026-04-28 08:10 50.51171 9.14011 3507 ft 134 kts 49°
2026-04-28 08:10 50.51846 9.15005 3500 ft 132 kts 50°
2026-04-28 08:10 50.52512 9.15996 3514 ft 134 kts 49°
2026-04-28 08:11 50.53182 9.17005 3519 ft 134 kts 49°
2026-04-28 08:11 50.53862 9.18019 3509 ft 135 kts 50°
2026-04-28 08:11 50.54529 9.19004 3518 ft 134 kts 50°
2026-04-28 08:11 50.55218 9.20012 3511 ft 136 kts 49°
2026-04-28 08:12 50.55906 9.21026 3516 ft 135 kts 50°
2026-04-28 08:12 50.56591 9.22048 3528 ft 136 kts 49°
2026-04-28 08:12 50.57280 9.23069 3526 ft 136 kts 49°
2026-04-28 08:12 50.57973 9.24090 3521 ft 136 kts 49°
2026-04-28 08:13 50.58655 9.25117 3531 ft 137 kts 50°
2026-04-28 08:13 50.59352 9.26162 3521 ft 138 kts 50°
2026-04-28 08:13 50.60033 9.27189 3519 ft 134 kts 49°
2026-04-28 08:13 50.60703 9.28198 3532 ft 135 kts 50°
2026-04-28 08:14 50.61404 9.29233 3532 ft 139 kts 50°
2026-04-28 08:14 50.62094 9.30268 3528 ft 137 kts 50°
2026-04-28 08:14 50.62773 9.31293 3525 ft 134 kts 49°
2026-04-28 08:14 50.63454 9.32319 3533 ft 140 kts 50°
2026-04-28 08:15 50.64157 9.33399 3530 ft 141 kts 50°
2026-04-28 08:15 50.64865 9.34477 3520 ft 139 kts 50°
2026-04-28 08:15 50.65559 9.35503 3529 ft 136 kts 49°
2026-04-28 08:15 50.66250 9.36517 3528 ft 135 kts 50°
2026-04-28 08:16 50.66946 9.37568 3528 ft 141 kts 50°
2026-04-28 08:16 50.67647 9.38632 3517 ft 137 kts 50°
2026-04-28 08:16 50.68337 9.39662 3531 ft 137 kts 50°
2026-04-28 08:16 50.69036 9.40705 3526 ft 137 kts 50°
2026-04-28 08:17 50.69712 9.41722 3523 ft 133 kts 50°
2026-04-28 08:17 50.70375 9.42718 3526 ft 131 kts 50°
2026-04-28 08:17 50.71033 9.43708 3531 ft 130 kts 50°
2026-04-28 08:17 50.71699 9.44729 3535 ft 137 kts 50°
2026-04-28 08:18 50.72374 9.45780 3550 ft 139 kts 50°
2026-04-28 08:18 50.73051 9.46876 3543 ft 139 kts 52°
2026-04-28 08:18 50.73718 9.47963 3529 ft 136 kts 52°
2026-04-28 08:18 50.74379 9.49006 3539 ft 135 kts 51°
2026-04-28 08:19 50.75041 9.50070 3541 ft 136 kts 51°
2026-04-28 08:19 50.75693 9.51145 3543 ft 134 kts 51°
2026-04-28 08:19 50.76344 9.52215 3542 ft 136 kts 52°
2026-04-28 08:19 50.77006 9.53283 3548 ft 137 kts 51°
2026-04-28 08:20 50.77663 9.54367 3540 ft 135 kts 52°
2026-04-28 08:20 50.78314 9.55444 3550 ft 136 kts 52°
2026-04-28 08:20 50.78977 9.56534 3544 ft 138 kts 52°
2026-04-28 08:20 50.79472 9.57744 3552 ft 130 kts 79°
2026-04-28 08:21 50.79622 9.59137 3382 ft 126 kts 84°
2026-04-28 08:21 50.79752 9.60499 3193 ft 124 kts 83°
2026-04-28 08:21 50.79874 9.61812 3018 ft 120 kts 84°
2026-04-28 08:21 50.79996 9.63106 2829 ft 118 kts 83°
2026-04-28 08:22 50.80113 9.64387 2648 ft 117 kts 84°
2026-04-28 08:22 50.80220 9.65668 2455 ft 115 kts 83°
2026-04-28 08:22 50.80312 9.66880 2431 ft 106 kts 84°
2026-04-28 08:22 50.80411 9.68038 2438 ft 112 kts 83°
2026-04-28 08:23 50.80514 9.69291 2434 ft 116 kts 83°
2026-04-28 08:23 50.80615 9.70528 2436 ft 111 kts 83°
2026-04-28 08:23 50.80710 9.71726 2432 ft 110 kts 84°
2026-04-28 08:23 50.80894 9.72889 2442 ft 115 kts 57°
2026-04-28 08:24 50.81635 9.73425 2302 ft 122 kts
2026-04-28 08:24 50.82190 9.73379 2147 ft 113 kts
2026-04-28 08:24 50.82914 9.73326 1937 ft 96 kts
2026-04-28 08:24 50.83529 9.73276 1873 ft 84 kts
2026-04-28 08:25 50.84130 9.73203 1816 ft 87 kts
2026-04-28 08:25 50.84704 9.73163 1873 ft 81 kts
2026-04-28 08:25 50.85247 9.73112 1882 ft 76 kts
2026-04-28 08:26 50.86302 9.73026 1908 ft 73 kts
2026-04-28 08:26 50.86804 9.72778 1715 ft 87 kts 317°
2026-04-28 08:26 50.86878 9.71833 1326 ft 86 kts 242°
2026-04-28 08:26 50.86506 9.71190 1233 ft 78 kts 219°
2026-04-28 08:27 50.86027 9.70918 1248 ft 75 kts 183°
2026-04-28 08:27 50.85495 9.70835 1251 ft 83 kts 179°
2026-04-28 08:27 50.84984 9.70802 1023 ft 70 kts 186°
2026-04-28 08:27 50.84564 9.70747 933 ft 46 kts 184°
2026-04-28 08:28 50.84100 9.70686 1166 ft 84 kts 181°
2026-04-28 08:28 50.83398 9.70610 1592 ft 116 kts 176°
2026-04-28 08:28 50.82540 9.70722 2004 ft 128 kts 165°
2026-04-28 08:28 50.81831 9.71302 2244 ft 106 kts 117°
2026-04-28 08:29 50.81751 9.72381 2207 ft 97 kts 84°
2026-04-28 08:29 50.81808 9.73412 2182 ft 92 kts 77°
2026-04-28 08:29 50.82233 9.74178 2046 ft 102 kts 45°
2026-04-28 08:29 50.82898 9.74656 1937 ft 109 kts 16°
2026-04-28 08:30 50.83644 9.74753 1885 ft 105 kts
2026-04-28 08:30 50.84355 9.74751 1941 ft 101 kts
2026-04-28 08:30 50.85065 9.74806 1868 ft 104 kts 10°
2026-04-28 08:30 50.85792 9.74886 1757 ft 105 kts 10°
2026-04-28 08:31 50.86464 9.74999 1882 ft 86 kts 12°
2026-04-28 08:31 50.87026 9.75078 1964 ft 87 kts 357°
2026-04-28 08:31 50.87460 9.74362 1885 ft 104 kts 289°
2026-04-28 08:31 50.87290 9.73310 1483 ft 99 kts 232°
2026-04-28 08:32 50.86916 9.72549 1321 ft 78 kts 231°
2026-04-28 08:32 50.86585 9.71903 1280 ft 78 kts 230°
2026-04-28 08:32 50.86246 9.71243 1306 ft 78 kts 228°
2026-04-28 08:32 50.85744 9.70882 1237 ft 85 kts 178°
2026-04-28 08:33 50.85168 9.70833 1099 ft 71 kts 182°
2026-04-28 08:33 50.84712 9.70765 921 ft 61 kts 179°
2026-04-28 08:33 50.84398 9.70726 952 ft 29 kts 184°
2026-04-28 08:33 50.84367 9.70703 955 ft 0 kts 275°